Regional Weather Roundup
Issued by NWS Huntsville, AL

Home | Current Version | Previous Version | Text Only | Print | Product List | Glossary On
Versions: 1 2 3 4 5 6 7 8 9 10 11 12 13 14 15 16 17 18 19 20 21 22 23 24 25 26 27 28 29 30 31 32 33 34 35 36 37 38 39 40 41 42 43 44 45 46 47 48 49 50
000
ASUS44 KHUN 041310
RWRHUN

WEATHER ROUNDUP FOR THE TENNESSEE VALLEY
NATIONAL WEATHER SERVICE HUNTSVILLE AL
800 AM CDT TUE AUG 04 2015

ALZ001>004-041400-
NORTHWEST ALABAMA

CITY           SKY/WX    TMP DP  RH WIND       PRES   REMARKS
COURTLAND HCN    N/A     75 N/A N/A CALM        N/A
RUSSELLVILLE     N/A     73 N/A N/A MISG        N/A
SHOALS AIRPORT SUNNY     78  72  81 CALM      30.04R
SHOALS TVA RES   N/A     75 N/A N/A MISG        N/A
$$

ALZ005>007-016-041400-
NORTH CENTRAL ALABAMA

CITY           SKY/WX    TMP DP  RH WIND       PRES   REMARKS
DECATUR AP     SUNNY     78  74  87 SE3       30.03R
HUNTSVILLE AP  MOSUNNY   79  71  76 CALM      30.02R
HUN NWS/UAH      N/A     81  68  64 SW1         N/A
MERIDIANVILLE  MOSUNNY   73  64  73 CALM      30.03S
REDSTONE ARSN  MOSUNNY   78  71  78 VRB3      30.02R
VINEMONT AP    FAIR      77  70  79 CALM      30.06S
$$

ALZ008>010-041400-
NORTHEAST ALABAMA

CITY           SKY/WX    TMP DP  RH WIND       PRES   REMARKS
ALBERTVILLE    SUNNY     77  72  83 CALM      30.04R
FORT PAYNE     MOSUNNY   72  63  73 CALM      30.04R
SCOTTSBORO AP  LGT RAIN  73  68  83 CALM      30.04S
SCOTTSBORO HCN   N/A     70 N/A N/A MISG        N/A
VALLEY HEAD      N/A     68 N/A N/A MISG        N/A
$$

TNZ076-096-097-041400-
SOUTHEASTERN MIDDLE TENNESSEE

CITY           SKY/WX    TMP DP  RH WIND       PRES   REMARKS
TULLAHOMA      SUNNY     75  70  83 CALM      30.05S
WINCHESTER     SUNNY     75  70  83 CALM      30.04S
$$

...SURROUNDING SITES...

CITY           SKY/WX    TMP DP  RH WIND       PRES   REMARKS
ATLANTA        MOSUNNY   81  66  60 VRB3      30.02R
ANNISTON       SUNNY     73  64  73 E3        30.02S
BIRMINGHAM     PTSUNNY   79  65  62 CALM      30.03S
CHATTANOOGA    PTSUNNY   75  67  76 CALM      30.04R
DALTON         SUNNY     72  68  88 CALM      30.04R
GADSDEN        SUNNY     73  61  64 CALM      30.02R
GOLDEN TRNGL   SUNNY     79  70  73 CALM      30.00R
HALEYVILLE     FAIR      77  75  93 CALM      30.07R
JACKSON TN     SUNNY     79  71  76 S5        30.01R
MEMPHIS        MOSUNNY   85  69  58 CALM      30.00R
NASHVILLE      PTSUNNY   78  70  76 CALM      30.02R
ROME           SUNNY     73  63  70 CALM      30.02S
SAVANNAH       SUNNY     75  32  20 CALM      30.03R
TUPELO         SUNNY     81  74  79 CALM      30.01R
TUSCALOOSA     SUNNY     79  69  71 CALM      29.99S
$$

...GULF COAST WEATHER...

CITY           SKY/WX    TMP DP  RH WIND       PRES   REMARKS
GULFPORT       SUNNY     82  76  81 CALM      29.98S
PASCAGOULA     SUNNY     80  77  90 CALM      30.00R
MOBILE         MOSUNNY   79  76  90 CALM      30.00R
GULF SHORES    SUNNY     82  77  85 NW5       29.99S
PENSACOLA      MOSUNNY   82  77  84 CALM      29.99R HX  90
DESTIN         SUNNY     86  78  77 VRB5      29.99R HX  98
PANAMA CITY    SUNNY     86  78  76 W12       29.99R HX  98
APPALACHICOLA  MOSUNNY   88  77  69 W10       30.00R HX 100
$$



USA.gov is the U.S. government's official web portal to all federal, state and local government web resources and services.